SCP
0 0 0 0 0 0 0 0 0 0 0 0 0 0 -0 0 0 0 0 0 0 -0 -0 -0 -0 -0 -0 -0 -0 0 -0 -0 -0
-0 0 0 0 0 0 0 0 0 0 0 0 0 0 0 -0 0 0 0 0 0 0 0 0 0 -0 -0 -0 -0 -0 -0 -0 -0
0 0 0 0 0 0 0 0 0 0 0 0 0 0 0 0 0 0 0 0 0 0 0 0 0 0 0 0 0 -0 -0 -0 -0
0 0 0 0 0 0 0 0 0 0 0 0 0 0 0 0 0 0 0 0 0 0 0 0 0 0 0 0 0 0 0 0 -0
0 0 0 0 0 0 0 0 0 0 0 0 0 0 0 0 0 0 0 0 0 0 0 0 0 0 0 0 0 0 0 0 0
0 0 0 0 0 0 0 0 0 0 0 0 0 0 0 0 0 0 0 0 0 0 0 0 0 0 0 0 0 0 0 0 0
0 0 0 0 0 0 0 0 0 0 0 0 0 0 0 0 0 0 0 0 0 0 0 0 0 0 0 0 0 0 0 0 0
0 0 0 0 0 0 0 0 0 0 0 0 0 0 0 0 0 0 0 0 0 0 0 0 0 0 0 0 0 0 0 0 0
0 0 0 0 0 0 0 0 0 0 0 0 0 0 0 0 0 0 0 0 0 0 0 0 0 0 0 0 0 0 0 0 0
0 0 0 0 0 0 0 0 0 0 0 0 0 0 0 0 0 0 0 0 0 0 0 0 0 0 0 0 0 0 0 0 0
0 1 1 0 0 0 0 0 0 0 0 0 0 0 0 0 0 0 0 0 0 0 0 0 0 0 0 0 0 0 0 0 0
0 0 0 0 0 0 0 0 0 0 0 0 0 0 0 0 0 0 0 0 0 0 0 0 0 0 0 0 0 0 0 0 0
0 0 0 0 0 0 0 0 0 0 0 0 0 0 0 0 0 0 0 0 0 0 0 0 0 0 0 0 0 0 0 0 0
0 0 0 0 0 0 0 0 0 0 0 0 0 0 0 0 0 0 0 0 0 0 0 0 0 0 0 0 0 0 0 0 0
0 0 0 0 0 0 0 0 0 0 0 0 0 0 0 0 0 0 0 0 0 0 0 0 0 0 0 0 0 0 0 0 0
0 0 0 0 0 0 0 0 0 0 0 0 0 0 0 0 0 0 0 0 0 0 0 0 0 0 0 0 0 0 0 0 0
0 0 0 0 0 0 0 0 0 0 0 0 0 0 0 0 0 0 0 0 0 0 0 0 0 0 0 0 0 0 0 0 0
0 0 0 0 0 0 0 0 0 0 0 0 0 0 0 0 0 0 0 0 0 0 0 0 0 0 0 0 0 0 0 0 0
0 0 0 0 0 0 0 0 0 0 0 0 0 0 0 0 0 0 0 0 0 0 0 0 0 0 0 0 0 0 0 0 0
0 0 0 0 0 0 0 0 0 0 0 0 0 0 0 0 0 0 0 0 0 0 0 0 0 0 0 0 0 0 0 0 0
Wind_Speed_500mb
9 11 11 14 7 8 9 4 5 3 3 2 3 7 12 18 5 12 13 8 6 9 10 11 13 17 21 23 22 19 24 24 27
9 11 12 13 11 9 8 12 9 9 7 7 5 9 8 8 4 5 5 16 7 6 10 11 12 12 15 17 18 18 20 22 24
8 9 10 9 9 9 11 17 17 17 14 9 8 10 4 8 4 2 4 15 12 8 9 10 9 7 7 10 13 13 15 19 21
11 10 9 10 8 8 11 17 19 19 20 22 18 15 11 8 7 2 6 15 6 5 5 5 5 6 3 2 5 10 13 15 18
15 15 13 10 10 9 11 16 19 22 22 25 28 24 19 8 12 6 22 18 8 5 3 5 8 8 8 6 4 4 10 12 13
20 20 20 19 17 14 13 16 18 22 25 30 32 33 17 20 13 13 30 22 14 16 15 11 10 9 11 15 15 8 6 10 12
21 29 25 25 24 21 19 19 19 20 20 24 28 32 21 28 26 21 34 30 22 19 23 22 22 19 15 12 10 18 11 11 14
20 18 28 25 25 24 26 24 22 17 21 23 23 19 22 21 24 29 38 33 27 23 24 24 25 29 25 20 11 17 19 17 15
20 20 20 23 21 23 22 24 27 29 28 23 21 21 22 23 24 26 37 34 30 28 26 26 27 30 31 29 24 15 25 22 18
27 25 24 24 24 24 25 27 26 30 29 28 26 26 26 27 26 28 40 38 32 31 29 27 28 29 33 33 34 29 24 27 23
44 41 30 28 28 28 29 28 29 29 29 29 32 31 29 30 31 31 36 35 34 34 32 30 29 30 32 32 35 30 39 32 29
50 55 58 48 36 31 34 34 32 34 32 34 32 35 34 33 33 36 36 36 33 35 35 33 32 32 35 34 36 36 34 42 39
29 40 53 62 64 60 57 43 40 40 36 36 37 36 38 39 35 36 40 38 35 33 35 35 34 33 36 35 37 39 40 40 43
30 27 26 39 47 53 56 46 50 44 42 41 40 39 42 41 39 40 45 46 41 40 37 35 35 35 35 36 37 39 42 43 44
34 33 30 30 30 44 40 54 57 46 50 45 44 45 48 49 49 45 45 51 49 45 43 41 39 38 38 37 37 38 40 41 42
36 36 33 32 32 32 35 39 45 62 47 49 53 55 49 51 54 56 52 50 56 53 49 50 44 42 42 42 40 38 38 41 41
38 37 38 36 37 37 35 36 39 44 57 48 48 52 55 60 59 56 54 55 55 58 54 54 51 46 46 43 43 41 39 39 41
44 44 42 42 42 42 39 38 38 45 46 59 45 28 32 37 56 62 62 53 55 59 55 55 55 52 51 50 45 44 42 40 38
48 48 49 50 47 46 45 41 42 41 45 43 59 74 54 13 34 29 46 54 52 56 59 55 55 54 52 54 53 45 45 44 44
58 54 54 55 52 52 49 48 46 48 49 47 43 49 69 80 65 41 40 52 57 57 54 53 54 53 53 52 52 48 46 46 46
Wind_Direction_500mb
332 332 327 328 319 242 229 228 179 161 223 255 190 136 92 85 68 18 9 359 1 14 42 27 17 28 34 36 48 75 99 104 105
343 332 325 325 304 289 281 239 234 219 235 257 209 174 114 82 7 39 32 285 312 29 14 7 359 5 27 38 45 63 96 104 104
323 322 322 320 310 302 267 241 239 242 246 248 239 219 205 81 281 323 292 289 278 293 319 325 323 336 7 39 50 63 103 107 114
301 306 308 317 314 294 264 246 241 248 250 259 256 251 234 142 235 230 281 293 295 250 308 330 291 275 273 15 66 73 95 126 118
291 286 280 293 297 288 268 250 246 248 254 263 258 255 251 262 238 250 254 267 236 233 300 263 272 257 221 243 230 137 117 132 156
304 295 299 295 289 287 278 266 255 248 256 273 265 255 247 225 257 242 257 262 253 241 250 264 272 257 237 234 234 204 161 141 151
263 282 290 288 285 281 276 272 271 252 249 293 284 257 249 240 215 233 255 258 255 249 249 253 250 252 247 248 242 213 196 173 168
292 292 298 290 285 285 283 276 264 256 236 236 252 255 243 256 258 238 246 253 253 250 248 252 250 244 245 253 245 220 207 195 185
286 281 276 275 269 277 259 264 270 270 265 255 259 249 251 245 246 263 266 259 253 253 248 251 249 244 243 242 243 221 220 214 207
262 273 278 276 274 268 263 265 257 265 261 256 246 241 244 243 242 245 259 260 252 253 249 246 248 248 246 241 238 224 225 226 226
273 267 258 273 277 272 268 262 263 254 255 252 249 242 239 237 236 234 258 261 252 251 250 245 243 246 244 240 233 234 220 223 220
271 272 278 266 253 256 263 263 258 256 253 252 250 254 243 238 237 240 241 262 255 251 252 248 244 240 241 239 235 235 229 223 221
305 290 276 273 274 267 252 248 256 257 253 255 255 244 249 240 238 237 246 244 255 253 251 251 247 242 242 240 237 236 235 230 227
314 308 298 301 288 272 266 262 254 252 254 257 249 245 244 241 235 235 243 246 245 249 255 248 247 245 243 242 239 237 237 236 234
311 304 305 302 297 299 281 259 254 252 255 251 253 251 243 241 237 234 235 248 244 243 244 250 246 245 244 244 243 239 238 237 235
311 305 302 299 295 292 290 285 269 251 246 260 248 248 244 243 243 239 231 234 248 244 241 246 249 247 243 242 242 243 241 237 237
308 301 296 294 293 291 287 286 283 275 252 252 257 259 254 243 235 242 234 231 236 246 244 243 244 242 249 242 242 240 244 240 236
298 296 292 289 288 285 284 283 279 282 277 245 242 249 245 249 237 236 236 231 227 239 242 240 239 239 238 249 241 238 236 237 237
290 287 284 284 286 284 282 280 278 276 273 275 252 240 244 297 254 224 233 231 233 229 236 238 238 236 237 241 247 240 236 233 226
284 283 280 278 278 281 280 277 273 270 271 267 266 263 255 254 250 277 246 226 232 231 230 234 231 233 234 237 243 243 234 232 227
Wind_Speed_850mb
9 11 11 14 7 8 9 4 5 3 3 2 3 7 12 18 5 12 13 8 6 9 10 11 13 17 21 23 22 19 24 24 27
9 11 12 13 11 9 8 12 9 9 7 7 5 9 8 8 4 5 5 16 7 6 10 11 12 12 15 17 18 18 20 22 24
8 9 10 9 9 9 11 17 17 17 14 9 8 10 4 8 4 2 4 15 12 8 9 10 9 7 7 10 13 13 15 19 21
11 10 9 10 8 8 11 17 19 19 20 22 18 15 11 8 7 2 6 15 6 5 5 5 5 6 3 2 5 10 13 15 18
15 15 13 10 10 9 11 16 19 22 22 25 28 24 19 8 12 6 22 18 8 5 3 5 8 8 8 6 4 4 10 12 13
20 20 20 19 17 14 13 16 18 22 25 30 32 33 17 20 13 13 30 22 14 16 15 11 10 9 11 15 15 8 6 10 12
21 29 25 25 24 21 19 19 19 20 20 24 28 32 21 28 26 21 34 30 22 19 23 22 22 19 15 12 10 18 11 11 14
20 18 28 25 25 24 26 24 22 17 21 23 23 19 22 21 24 29 38 33 27 23 24 24 25 29 25 20 11 17 19 17 15
20 20 20 23 21 23 22 24 27 29 28 23 21 21 22 23 24 26 37 34 30 28 26 26 27 30 31 29 24 15 25 22 18
27 25 24 24 24 24 25 27 26 30 29 28 26 26 26 27 26 28 40 38 32 31 29 27 28 29 33 33 34 29 24 27 23
44 41 30 28 28 28 29 28 29 29 29 29 32 31 29 30 31 31 36 35 34 34 32 30 29 30 32 32 35 30 39 32 29
50 55 58 48 36 31 34 34 32 34 32 34 32 35 34 33 33 36 36 36 33 35 35 33 32 32 35 34 36 36 34 42 39
29 40 53 62 64 60 57 43 40 40 36 36 37 36 38 39 35 36 40 38 35 33 35 35 34 33 36 35 37 39 40 40 43
30 27 26 39 47 53 56 46 50 44 42 41 40 39 42 41 39 40 45 46 41 40 37 35 35 35 35 36 37 39 42 43 44
34 33 30 30 30 44 40 54 57 46 50 45 44 45 48 49 49 45 45 51 49 45 43 41 39 38 38 37 37 38 40 41 42
36 36 33 32 32 32 35 39 45 62 47 49 53 55 49 51 54 56 52 50 56 53 49 50 44 42 42 42 40 38 38 41 41
38 37 38 36 37 37 35 36 39 44 57 48 48 52 55 60 59 56 54 55 55 58 54 54 51 46 46 43 43 41 39 39 41
44 44 42 42 42 42 39 38 38 45 46 59 45 28 32 37 56 62 62 53 55 59 55 55 55 52 51 50 45 44 42 40 38
48 48 49 50 47 46 45 41 42 41 45 43 59 74 54 13 34 29 46 54 52 56 59 55 55 54 52 54 53 45 45 44 44
58 54 54 55 52 52 49 48 46 48 49 47 43 49 69 80 65 41 40 52 57 57 54 53 54 53 53 52 52 48 46 46 46
Wind_Direction_850mb
332 332 327 328 319 242 229 228 179 161 223 255 190 136 92 85 68 18 9 359 1 14 42 27 17 28 34 36 48 75 99 104 105
343 332 325 325 304 289 281 239 234 219 235 257 209 174 114 82 7 39 32 285 312 29 14 7 359 5 27 38 45 63 96 104 104
323 322 322 320 310 302 267 241 239 242 246 248 239 219 205 81 281 323 292 289 278 293 319 325 323 336 7 39 50 63 103 107 114
301 306 308 317 314 294 264 246 241 248 250 259 256 251 234 142 235 230 281 293 295 250 308 330 291 275 273 15 66 73 95 126 118
291 286 280 293 297 288 268 250 246 248 254 263 258 255 251 262 238 250 254 267 236 233 300 263 272 257 221 243 230 137 117 132 156
304 295 299 295 289 287 278 266 255 248 256 273 265 255 247 225 257 242 257 262 253 241 250 264 272 257 237 234 234 204 161 141 151
263 282 290 288 285 281 276 272 271 252 249 293 284 257 249 240 215 233 255 258 255 249 249 253 250 252 247 248 242 213 196 173 168
292 292 298 290 285 285 283 276 264 256 236 236 252 255 243 256 258 238 246 253 253 250 248 252 250 244 245 253 245 220 207 195 185
286 281 276 275 269 277 259 264 270 270 265 255 259 249 251 245 246 263 266 259 253 253 248 251 249 244 243 242 243 221 220 214 207
262 273 278 276 274 268 263 265 257 265 261 256 246 241 244 243 242 245 259 260 252 253 249 246 248 248 246 241 238 224 225 226 226
273 267 258 273 277 272 268 262 263 254 255 252 249 242 239 237 236 234 258 261 252 251 250 245 243 246 244 240 233 234 220 223 220
271 272 278 266 253 256 263 263 258 256 253 252 250 254 243 238 237 240 241 262 255 251 252 248 244 240 241 239 235 235 229 223 221
305 290 276 273 274 267 252 248 256 257 253 255 255 244 249 240 238 237 246 244 255 253 251 251 247 242 242 240 237 236 235 230 227
314 308 298 301 288 272 266 262 254 252 254 257 249 245 244 241 235 235 243 246 245 249 255 248 247 245 243 242 239 237 237 236 234
311 304 305 302 297 299 281 259 254 252 255 251 253 251 243 241 237 234 235 248 244 243 244 250 246 245 244 244 243 239 238 237 235
311 305 302 299 295 292 290 285 269 251 246 260 248 248 244 243 243 239 231 234 248 244 241 246 249 247 243 242 242 243 241 237 237
308 301 296 294 293 291 287 286 283 275 252 252 257 259 254 243 235 242 234 231 236 246 244 243 244 242 249 242 242 240 244 240 236
298 296 292 289 288 285 284 283 279 282 277 245 242 249 245 249 237 236 236 231 227 239 242 240 239 239 238 249 241 238 236 237 237
290 287 284 284 286 284 282 280 278 276 273 275 252 240 244 297 254 224 233 231 233 229 236 238 238 236 237 241 247 240 236 233 226
284 283 280 278 278 281 280 277 273 270 271 267 266 263 255 254 250 277 246 226 232 231 230 234 231 233 234 237 243 243 234 232 227